Stations météo

réclame
Mon MeteoGroup
Mildenhall Royal Air Force Bas, Grande-Bretagne (3577): Température de l'air & dewpoint: 08.08.2018 22:00:00 - 14.08.2018 22:00:00 (BST)Mildenhall Royal Air Force Bas, Grande-Bretagne (3577): Vitesse du vent: 08.08.2018 22:00:00 - 14.08.2018 22:00:00 (BST)Mildenhall Royal Air Force Bas, Grande-Bretagne (3577): Direction du vent: 08.08.2018 22:00:00 - 14.08.2018 22:00:00 (BST)Mildenhall Royal Air Force Bas, Grande-Bretagne (3577): reduced air pressure: 08.08.2018 22:00:00 - 14.08.2018 22:00:00 (BST)Mildenhall Royal Air Force Bas, Grande-Bretagne (3577): visibility: 08.08.2018 22:00:00 - 14.08.2018 22:00:00 (BST)Mildenhall Royal Air Force Bas, Grande-Bretagne (3577): Quantités de précipitations: 08.08.2018 22:00:00 - 14.08.2018 22:00:00 (BST)
Date & Time tt [°C] td [°C] ff [km/h] ff [knt] dd ppp [hPa] vv [km] rr [mm]
14.08.2018 22:00:00 20,4 18,7 9 5 W 1016,2 10 -
14.08.2018 21:00:00 20,9 18,1 9 5 WSW 1016,2 10 -
14.08.2018 20:00:00 21,3 16,9 13 7 W 1015,5 10 -
14.08.2018 19:00:00 22,3 15,9 16 9 W 1015,2 10 -
14.08.2018 18:00:00 23,1 15,1 24 13 W 1015,2 10 -
14.08.2018 17:00:00 23,0 14,3 15 8 W 1015,2 10 -
14.08.2018 16:00:00 23,5 14,2 15 8 W 1015,2 10 -
14.08.2018 15:00:00 22,2 15,0 15 8 W 1015,5 10 -
14.08.2018 14:00:00 21,9 15,0 11 6 W 1015,5 10 -
14.08.2018 13:00:00 21,0 15,7 15 8 W 1015,5 10 -
14.08.2018 12:00:00 19,5 16,7 15 8 W 1015,5 10 -
14.08.2018 11:00:00 19,5 16,3 18 10 W 1015,2 10 -
14.08.2018 10:00:00 18,3 18,3 18 10 W 1014,8 10 -
14.08.2018 09:00:00 16,4 16,4 13 7 W 1014,8 10 -
14.08.2018 08:00:00 15,3 15,3 13 7 W 1014,5 10 -
14.08.2018 07:00:00 14,6 14,6 16 9 W 1014,2 10 -
14.08.2018 06:00:00 14,1 14,1 15 8 W 1013,2 10 -
14.08.2018 05:00:00 15,2 15,2 13 7 W 1012,8 10 -
14.08.2018 04:00:00 15,5 15,5 15 8 W 1012,5 10 -
14.08.2018 03:00:00 15,2 15,2 13 7 WNW 1012,1 10 -
14.08.2018 02:00:00 16,4 16,4 16 9 WNW 1011,8 10 -
14.08.2018 01:00:00 16,9 16,9 13 7 NW 1011,1 10 -
14.08.2018 00:00:00 17,2 17,2 13 7 WNW 1010,8 10 -
13.08.2018 23:00:00 17,7 17,7 15 8 WNW 1010,1 10 -
13.08.2018 22:00:00 17,4 17,4 13 7 W 1009,4 10 -
13.08.2018 21:00:00 17,1 17,1 13 7 WNW 1008,7 10 -
13.08.2018 20:00:00 17,7 17,7 9 5 NW 1008,1 10 1,0
13.08.2018 19:00:00 18,5 18,5 11 6 WNW 1007,7 9 0,0
13.08.2018 18:00:00 18,7 18,7 5 3 SSW 1006,7 10 0,3
13.08.2018 17:00:00 18,5 18,5 5 3 WSW 1006,7 10 0,0
13.08.2018 16:00:00 20,3 20,3 9 5 WNW 1006,4 10 0,8
13.08.2018 15:00:00 18,4 18,4 9 5 W 1006,4 10 0,5
13.08.2018 14:00:00 21,2 21,0 15 8 W 1006,0 10 0,0
13.08.2018 13:00:00 19,1 19,1 0 0 N 1006,0 10 0,0
13.08.2018 12:00:00 18,4 18,4 0 0 N 1005,7 10 1,0
13.08.2018 11:00:00 18,3 18,3 15 8 W 1005,7 10 -
13.08.2018 10:00:00 18,3 18,3 9 5 W 1005,4 10 -
13.08.2018 09:00:00 16,9 16,9 5 3 WSW 1005,4 10 -
13.08.2018 08:00:00 16,2 16,2 8 4 WSW 1005,0 10 -
13.08.2018 07:00:00 15,9 15,9 8 4 WSW 1005,0 10 -
13.08.2018 06:00:00 15,6 15,6 8 4 SW 1004,7 10 -
13.08.2018 05:00:00 15,7 15,7 5 3 SSW 1004,7 9 0,0
13.08.2018 04:00:00 15,6 15,6 0 0 N 1004,7 10 -
13.08.2018 03:00:00 15,3 15,3 5 3 S 1005,0 10 -
13.08.2018 02:00:00 15,5 15,5 5 3 S 1005,7 10 0,0
13.08.2018 01:00:00 15,7 15,7 0 0 N 1006,0 10 1,0
13.08.2018 00:00:00 16,1 16,1 9 5 SSE 1006,4 10 0,5
12.08.2018 23:00:00 17,3 17,3 8 4 SSE 1006,4 10 -
12.08.2018 22:00:00 18,1 17,6 0 0 N 1006,7 10 -
12.08.2018 21:00:00 19,0 16,2 11 6 SSW 1007,4 10 -
12.08.2018 20:00:00 19,4 14,8 8 4 SSW 1007,4 10 -
12.08.2018 19:00:00 20,1 15,3 18 10 S 1007,4 10 -
12.08.2018 18:00:00 20,9 14,5 21 11 SSW 1007,7 10 -
12.08.2018 17:00:00 20,8 15,3 18 10 SW 1008,4 10 -
12.08.2018 16:00:00 20,8 16,2 21 11 SSW 1008,7 10 -
12.08.2018 15:00:00 21,7 14,8 21 11 SSW 1009,1 10 -
12.08.2018 14:00:00 22,1 13,2 26 14 SSW 1009,4 10 -
12.08.2018 13:00:00 22,2 14,8 22 12 S 1009,4 10 -
12.08.2018 12:00:00 21,8 14,7 16 9 SSW 1009,8 10 -
12.08.2018 11:00:00 20,2 16,8 24 13 SSW 1010,4 10 -
12.08.2018 10:00:00 19,5 18,1 24 13 SSW 1010,8 10 -
12.08.2018 09:00:00 19,3 19,3 18 10 SSW 1011,1 10 -
12.08.2018 08:00:00 17,9 17,9 15 8 S 1011,4 10 -
12.08.2018 07:00:00 17,0 17,0 13 7 S 1011,8 10 -
12.08.2018 06:00:00 16,6 16,6 13 7 S 1012,1 10 -
12.08.2018 05:00:00 16,6 16,6 15 8 S 1012,5 10 0,0
12.08.2018 04:00:00 16,4 16,4 13 7 S 1013,1 10 0,8
12.08.2018 03:00:00 16,6 16,6 16 9 S 1014,2 10 -
12.08.2018 02:00:00 16,5 16,5 15 8 S 1014,8 10 0,0
12.08.2018 01:00:00 16,3 16,3 15 8 S 1015,5 10 -
12.08.2018 00:00:00 16,2 16,2 15 8 S 1016,5 10 0,3
11.08.2018 23:00:00 16,2 16,2 13 7 S 1017,2 10 1,3
11.08.2018 22:00:00 16,3 16,3 11 6 S 1018,2 10 1,0
11.08.2018 21:00:00 16,6 16,6 15 8 SSW 1018,6 10 0,3
11.08.2018 20:00:00 19,5 13,0 15 8 SSW 1018,2 10 -
11.08.2018 19:00:00 20,0 10,1 13 7 S 1018,9 10 -
11.08.2018 18:00:00 20,6 9,2 24 13 SW 1019,3 10 -
11.08.2018 17:00:00 22,0 8,1 18 10 SW 1019,3 10 -
11.08.2018 16:00:00 22,4 7,8 15 8 SSW 1019,9 10 -
11.08.2018 15:00:00 22,0 8,5 15 8 WSW 1020,6 10 -
11.08.2018 14:00:00 20,9 7,8 15 8 WSW 1021,3 10 -
11.08.2018 13:00:00 19,8 7,2 11 6 SW 1022,0 10 -
11.08.2018 12:00:00 18,7 9,7 11 6 S 1022,3 10 -
11.08.2018 11:00:00 18,1 11,9 13 7 SW 1022,3 10 0,0
11.08.2018 10:00:00 16,7 13,6 8 4 W 1022,6 10 -
11.08.2018 09:00:00 14,6 14,6 11 6 W 1022,3 10 -
11.08.2018 08:00:00 12,3 12,3 13 7 W 1022,7 10 -
11.08.2018 07:00:00 10,3 10,3 13 7 WSW 1022,3 10 -
11.08.2018 06:00:00 8,9 8,9 9 5 WSW 1021,6 10 -
11.08.2018 05:00:00 8,8 8,8 9 5 WSW 1021,3 10 -
11.08.2018 04:00:00 9,4 9,4 11 6 WSW 1021,3 10 -
11.08.2018 03:00:00 9,7 9,7 11 6 WSW 1021,0 10 -
11.08.2018 02:00:00 9,4 9,4 9 5 WSW 1020,6 10 -
11.08.2018 01:00:00 10,3 10,3 11 6 WSW 1020,3 10 -
11.08.2018 00:00:00 10,5 10,5 8 4 WSW 1019,9 10 -
10.08.2018 23:00:00 11,5 11,5 11 6 WSW 1019,6 10 -
10.08.2018 22:00:00 12,1 12,1 11 6 WSW 1018,6 10 -
10.08.2018 21:00:00 12,2 12,2 9 5 W 1017,9 10 -
10.08.2018 20:00:00 13,7 13,7 11 6 WSW 1017,6 10 -
10.08.2018 19:00:00 14,1 14,1 13 7 WSW 1016,9 10 0,0
10.08.2018 18:00:00 14,7 14,7 15 8 W 1016,6 10 0,5
10.08.2018 17:00:00 15,6 15,6 11 6 W 1016,2 10 -
10.08.2018 16:00:00 14,9 14,9 9 5 SSW 1015,9 10 0,3
10.08.2018 15:00:00 14,1 14,1 9 5 W 1016,2 10 -
10.08.2018 14:00:00 12,7 12,7 0 0 N 1016,2 10 2,8
10.08.2018 13:00:00 13,7 13,7 9 5 WSW 1016,9 8 2,3
10.08.2018 12:00:00 17,1 11,6 18 10 WSW 1016,9 10 0,0
10.08.2018 11:00:00 17,8 13,3 21 11 SW 1016,9 10 -
10.08.2018 10:00:00 17,8 15,9 21 11 SW 1016,9 10 -
10.08.2018 09:00:00 15,2 15,2 18 10 SW 1016,9 10 -
10.08.2018 08:00:00 14,1 14,1 18 10 SW 1016,9 10 -
10.08.2018 07:00:00 12,2 12,2 15 8 SSW 1016,6 10 -
10.08.2018 06:00:00 10,9 10,9 15 8 SW 1016,6 10 -
10.08.2018 05:00:00 11,2 11,2 13 7 SSW 1015,9 10 -
10.08.2018 04:00:00 11,5 11,5 13 7 SW 1016,2 10 -
10.08.2018 03:00:00 12,1 12,1 13 7 SW 1016,2 10 -
10.08.2018 02:00:00 12,6 12,6 9 5 S 1015,9 10 0,0
10.08.2018 01:00:00 13,1 13,1 8 4 S 1015,9 10 0,0
10.08.2018 00:00:00 13,0 13,0 0 0 N 1015,9 10 1,0
09.08.2018 23:00:00 13,6 13,6 15 8 WSW 1015,9 10 0,3
09.08.2018 22:00:00 13,1 13,1 11 6 SW 1014,9 10 -
09.08.2018 21:00:00 13,1 13,1 9 5 SSW 1014,2 10 -
09.08.2018 20:00:00 13,5 13,5 9 5 SW 1013,5 10 0,0
09.08.2018 19:00:00 13,5 13,5 0 0 N 1013,2 10 0,5
09.08.2018 18:00:00 13,2 13,2 8 4 W 1013,2 10 1,5
09.08.2018 17:00:00 13,0 13,0 8 4 NNW 1012,8 9 3,0
09.08.2018 16:00:00 13,0 13,0 11 6 NNW 1012,5 10 7,9
09.08.2018 15:00:00 15,3 15,3 21 11 N 1012,1 4,0 5,1
09.08.2018 14:00:00 15,8 15,8 0 0 N 1011,8 5 6,9
09.08.2018 13:00:00 16,4 16,4 9 5 ENE 1012,1 2,6 1,8
09.08.2018 12:00:00 16,8 16,8 0 0 N 1012,1 10 0,5
09.08.2018 11:00:00 16,9 16,9 5 3 NNE 1012,1 10 0,0
09.08.2018 10:00:00 16,8 16,8 9 5 N 1012,5 10 0,0
09.08.2018 09:00:00 16,8 16,8 0 0 N 1012,8 10 0,0
09.08.2018 08:00:00 15,9 15,9 0 0 N 1012,8 10 0,0
09.08.2018 07:00:00 15,5 15,5 0 0 N 1012,5 10 0,0
09.08.2018 06:00:00 15,3 15,3 5 3 W 1012,8 10 0,0
09.08.2018 05:00:00 15,3 15,3 5 3 WSW 1012,5 10 0,0
09.08.2018 04:00:00 16,1 15,5 8 4 SW 1012,5 10 0,0
09.08.2018 03:00:00 16,4 14,9 8 4 SW 1012,8 10 -
09.08.2018 02:00:00 16,9 14,4 5 3 SSW 1012,8 10 -
09.08.2018 01:00:00 17,0 14,0 0 0 N 1012,8 10 -
09.08.2018 00:00:00 17,1 13,0 0 0 N 1012,8 10 -
08.08.2018 23:00:00 17,0 12,1 8 4 SSW 1012,8 10 -
08.08.2018 22:00:00 18,1 11,2 8 4 WSW 1012,5 10 -

tt = Température de l'air
td = dewpoint
ff = Vitesse du vent
dd = Direction du vent
ppp = reduced air pressure
vv = visibility
rr = Quantités de précipitations

stations d'obs. à proximité